Time,TemperatureF,DewpointF,PressureIn,WindDirection,WindDirectionDegrees,WindSpeedMPH,WindSpeedGustMPH,Humidity,HourlyPrecipIn,Conditions,Clouds,dailyrainin,SoftwareType,DateUTC
2014-04-17 00:01:00,40.8,27.7,30.25,North,0,0.0,0.0,59,0.00,,,0.00,meteobridge,2014-04-17 04:01:00,
2014-04-17 00:03:00,40.8,27.7,30.25,North,0,0.0,0.0,59,0.00,,,0.00,meteobridge,2014-04-17 04:03:00,
2014-04-17 00:04:00,40.8,27.7,30.24,North,0,0.0,0.0,59,0.00,,,0.00,meteobridge,2014-04-17 04:04:00,
2014-04-17 00:05:00,40.8,27.7,30.25,North,0,0.0,0.0,59,0.00,,,0.00,meteobridge,2014-04-17 04:05:00,
2014-04-17 00:07:00,40.8,27.7,30.25,North,0,0.0,0.0,59,0.00,,,0.00,meteobridge,2014-04-17 04:07:00,
2014-04-17 00:12:00,40.8,27.7,30.24,North,0,0.0,0.0,59,0.00,,,0.00,meteobridge,2014-04-17 04:12:00,
2014-04-17 00:17:00,40.6,27.5,30.24,North,0,0.0,0.0,59,0.00,,,0.00,meteobridge,2014-04-17 04:17:00,
2014-04-17 00:22:00,40.6,27.9,30.24,North,0,0.0,0.0,60,0.00,,,0.00,meteobridge,2014-04-17 04:22:00,
2014-04-17 00:27:00,40.5,27.7,30.24,North,0,0.0,0.0,60,0.00,,,0.00,meteobridge,2014-04-17 04:27:00,
2014-04-17 00:32:00,40.5,27.7,30.24,North,0,0.0,0.0,60,0.00,,,0.00,meteobridge,2014-04-17 04:32:00,
2014-04-17 00:37:00,40.5,27.7,30.24,North,0,0.0,0.0,60,0.00,,,0.00,meteobridge,2014-04-17 04:37:00,
2014-04-17 00:42:00,40.6,27.9,30.24,North,0,0.0,0.0,60,0.00,,,0.00,meteobridge,2014-04-17 04:42:00,
2014-04-17 00:48:00,40.6,27.9,30.24,North,0,0.0,0.0,60,0.00,,,0.00,meteobridge,2014-04-17 04:48:00,
2014-04-17 00:53:00,40.6,27.9,30.23,North,0,0.0,0.0,60,0.00,,,0.00,meteobridge,2014-04-17 04:53:00,
2014-04-17 00:58:00,40.6,27.9,30.23,North,0,0.0,0.0,60,0.00,,,0.00,meteobridge,2014-04-17 04:58:00,
2014-04-17 01:03:00,40.8,27.7,30.23,North,0,0.0,0.0,59,0.00,,,0.00,meteobridge,2014-04-17 05:03:00,
2014-04-17 01:08:00,40.8,27.7,30.23,North,0,0.0,0.0,59,0.00,,,0.00,meteobridge,2014-04-17 05:08:00,
2014-04-17 01:13:00,40.8,27.7,30.23,North,0,0.0,0.0,59,0.00,,,0.00,meteobridge,2014-04-17 05:13:00,
2014-04-17 01:19:00,40.8,27.7,30.23,North,0,0.0,0.0,59,0.00,,,0.00,meteobridge,2014-04-17 05:19:00,
2014-04-17 01:24:00,40.8,27.7,30.23,North,0,0.0,0.0,59,0.00,,,0.00,meteobridge,2014-04-17 05:24:00,
2014-04-17 01:29:00,40.6,27.5,30.22,North,0,0.0,0.0,59,0.00,,,0.00,meteobridge,2014-04-17 05:29:00,
2014-04-17 01:34:00,40.6,27.5,30.22,North,0,0.0,0.0,59,0.00,,,0.00,meteobridge,2014-04-17 05:34:00,
2014-04-17 01:39:00,40.6,27.5,30.22,North,0,0.0,0.0,59,0.00,,,0.00,meteobridge,2014-04-17 05:39:00,
2014-04-17 01:44:00,40.6,27.5,30.22,North,0,0.0,0.0,59,0.00,,,0.00,meteobridge,2014-04-17 05:44:00,
2014-04-17 01:50:00,40.6,27.9,30.22,North,0,0.0,0.0,60,0.00,,,0.00,meteobridge,2014-04-17 05:50:00,
2014-04-17 01:55:00,40.5,27.7,30.23,North,0,0.0,0.0,60,0.00,,,0.00,meteobridge,2014-04-17 05:55:00,
2014-04-17 02:00:00,40.5,27.7,30.23,North,0,0.0,0.0,60,0.00,,,0.00,meteobridge,2014-04-17 06:00:00,
2014-04-17 02:06:00,40.3,27.5,30.23,North,0,0.0,0.0,60,0.00,,,0.00,meteobridge,2014-04-17 06:06:00,
2014-04-17 02:11:00,40.3,27.5,30.23,North,0,0.0,0.0,60,0.00,,,0.00,meteobridge,2014-04-17 06:11:00,
2014-04-17 02:16:00,40.1,27.7,30.23,North,0,0.0,0.0,61,0.00,,,0.00,meteobridge,2014-04-17 06:16:00,
2014-04-17 02:21:00,39.9,27.5,30.22,North,0,0.0,0.0,61,0.00,,,0.00,meteobridge,2014-04-17 06:21:00,
2014-04-17 02:26:00,39.7,27.3,30.22,North,0,0.0,0.0,61,0.00,,,0.00,meteobridge,2014-04-17 06:26:00,
2014-04-17 02:32:00,39.7,27.3,30.22,North,0,0.0,0.0,61,0.00,,,0.00,meteobridge,2014-04-17 06:32:00,
2014-04-17 02:37:00,39.7,27.3,30.22,North,0,0.0,0.0,61,0.00,,,0.00,meteobridge,2014-04-17 06:37:00,
2014-04-17 02:42:00,39.7,27.3,30.23,North,0,0.0,0.0,61,0.00,,,0.00,meteobridge,2014-04-17 06:42:00,
2014-04-17 02:47:00,39.7,27.3,30.22,North,0,0.0,0.0,61,0.00,,,0.00,meteobridge,2014-04-17 06:47:00,
2014-04-17 02:52:00,39.7,27.3,30.23,North,0,0.0,0.0,61,0.00,,,0.00,meteobridge,2014-04-17 06:52:00,
2014-04-17 02:57:00,39.7,27.3,30.23,North,0,0.0,0.0,61,0.00,,,0.00,meteobridge,2014-04-17 06:57:00,
2014-04-17 03:02:00,39.7,27.3,30.23,North,0,0.0,0.0,61,0.00,,,0.00,meteobridge,2014-04-17 07:02:00,
2014-04-17 03:08:00,39.6,27.1,30.23,North,0,0.0,0.0,61,0.00,,,0.00,meteobridge,2014-04-17 07:08:00,
2014-04-17 03:13:00,39.4,27.1,30.23,North,0,0.0,0.0,61,0.00,,,0.00,meteobridge,2014-04-17 07:13:00,
2014-04-17 03:18:00,39.4,27.1,30.23,North,0,0.0,0.0,61,0.00,,,0.00,meteobridge,2014-04-17 07:18:00,
2014-04-17 03:23:00,39.4,27.1,30.23,North,0,0.0,0.0,61,0.00,,,0.00,meteobridge,2014-04-17 07:23:00,
2014-04-17 03:29:00,39.2,27.3,30.23,North,0,0.0,0.0,62,0.00,,,0.00,meteobridge,2014-04-17 07:29:00,
2014-04-17 03:34:00,39.2,27.3,30.23,North,0,0.0,0.0,62,0.00,,,0.00,meteobridge,2014-04-17 07:34:00,
2014-04-17 03:39:00,39.0,27.1,30.23,North,0,0.0,0.0,62,0.00,,,0.00,meteobridge,2014-04-17 07:39:00,
2014-04-17 03:44:00,39.0,27.1,30.23,North,0,0.0,0.0,62,0.00,,,0.00,meteobridge,2014-04-17 07:44:00,
2014-04-17 03:49:00,39.0,27.1,30.24,North,0,0.0,0.0,62,0.00,,,0.00,meteobridge,2014-04-17 07:49:00,
2014-04-17 03:54:00,38.8,27.0,30.23,North,0,0.0,0.0,62,0.00,,,0.00,meteobridge,2014-04-17 07:54:00,
2014-04-17 04:00:00,38.8,27.0,30.23,North,0,0.0,0.0,62,0.00,,,0.00,meteobridge,2014-04-17 08:00:00,
2014-04-17 04:05:00,38.8,27.0,30.23,North,0,0.0,0.0,62,0.00,,,0.00,meteobridge,2014-04-17 08:05:00,
2014-04-17 04:10:00,38.8,27.3,30.23,North,0,0.0,0.0,63,0.00,,,0.00,meteobridge,2014-04-17 08:10:00,
2014-04-17 04:15:00,38.8,27.0,30.24,North,0,0.0,0.0,62,0.00,,,0.00,meteobridge,2014-04-17 08:15:00,
2014-04-17 04:20:00,38.8,27.0,30.24,North,0,0.0,0.0,62,0.00,,,0.00,meteobridge,2014-04-17 08:20:00,
2014-04-17 04:25:00,38.8,27.0,30.24,North,0,0.0,0.0,62,0.00,,,0.00,meteobridge,2014-04-17 08:25:00,
2014-04-17 04:30:00,38.7,26.8,30.24,North,0,0.0,0.0,62,0.00,,,0.00,meteobridge,2014-04-17 08:30:00,
2014-04-17 04:35:00,38.7,26.8,30.24,North,0,0.0,0.0,62,0.00,,,0.00,meteobridge,2014-04-17 08:35:00,
2014-04-17 04:40:00,38.7,26.8,30.24,North,0,0.0,0.0,62,0.00,,,0.00,meteobridge,2014-04-17 08:40:00,
2014-04-17 04:46:00,38.7,27.1,30.24,North,0,0.0,0.0,63,0.00,,,0.00,meteobridge,2014-04-17 08:46:00,
2014-04-17 04:51:00,38.5,27.0,30.24,North,0,0.0,0.0,63,0.00,,,0.00,meteobridge,2014-04-17 08:51:00,
2014-04-17 04:56:00,38.5,27.0,30.24,North,0,0.0,0.0,63,0.00,,,0.00,meteobridge,2014-04-17 08:56:00,
2014-04-17 05:01:00,38.3,26.8,30.24,North,0,0.0,0.0,63,0.00,,,0.00,meteobridge,2014-04-17 09:01:00,
2014-04-17 05:06:00,38.3,26.8,30.24,North,0,0.0,0.0,63,0.00,,,0.00,meteobridge,2014-04-17 09:06:00,
2014-04-17 05:11:00,38.3,26.8,30.24,North,0,0.0,0.0,63,0.00,,,0.00,meteobridge,2014-04-17 09:11:00,
2014-04-17 05:17:00,38.5,27.0,30.24,North,0,0.0,0.0,63,0.00,,,0.00,meteobridge,2014-04-17 09:17:00,
2014-04-17 05:22:00,38.3,26.8,30.24,North,0,0.0,0.0,63,0.00,,,0.00,meteobridge,2014-04-17 09:22:00,
2014-04-17 05:26:00,38.3,26.8,30.24,North,0,0.0,0.0,63,0.00,,,0.00,meteobridge,2014-04-17 09:26:00,
2014-04-17 05:31:00,38.3,26.8,30.24,North,0,0.0,0.0,63,0.00,,,0.00,meteobridge,2014-04-17 09:31:00,
2014-04-17 05:37:00,38.1,26.6,30.24,North,0,0.0,0.0,63,0.00,,,0.00,meteobridge,2014-04-17 09:37:00,
2014-04-17 05:42:00,38.3,26.8,30.24,North,0,0.0,0.0,63,0.00,,,0.00,meteobridge,2014-04-17 09:42:00,
2014-04-17 05:47:00,38.3,26.8,30.24,North,0,0.0,0.0,63,0.00,,,0.00,meteobridge,2014-04-17 09:47:00,
2014-04-17 05:52:00,38.3,26.8,30.24,North,0,0.0,0.0,63,0.00,,,0.00,meteobridge,2014-04-17 09:52:00,
2014-04-17 05:57:00,38.3,26.8,30.24,North,0,0.0,0.0,63,0.00,,,0.00,meteobridge,2014-04-17 09:57:00,
2014-04-17 06:02:00,38.3,26.8,30.24,North,0,0.0,0.0,63,0.00,,,0.00,meteobridge,2014-04-17 10:02:00,
2014-04-17 06:08:00,38.3,26.8,30.24,North,0,0.0,0.0,63,0.00,,,0.00,meteobridge,2014-04-17 10:08:00,
2014-04-17 06:13:00,38.5,27.0,30.24,North,0,0.0,0.0,63,0.00,,,0.00,meteobridge,2014-04-17 10:13:00,
2014-04-17 06:18:00,38.3,26.8,30.24,North,0,0.0,0.0,63,0.00,,,0.00,meteobridge,2014-04-17 10:18:00,
2014-04-17 06:23:00,38.1,26.6,30.24,North,0,0.0,0.0,63,0.00,,,0.00,meteobridge,2014-04-17 10:23:00,
2014-04-17 06:28:00,38.3,26.8,30.25,North,0,0.0,0.0,63,0.00,,,0.00,meteobridge,2014-04-17 10:28:00,
2014-04-17 06:34:00,38.5,27.0,30.24,North,0,0.0,0.0,63,0.00,,,0.00,meteobridge,2014-04-17 10:34:00,
2014-04-17 06:39:00,38.5,27.0,30.25,North,0,0.0,0.0,63,0.00,,,0.00,meteobridge,2014-04-17 10:39:00,
2014-04-17 06:44:00,38.5,27.0,30.25,North,0,0.0,0.0,63,0.00,,,0.00,meteobridge,2014-04-17 10:44:00,
2014-04-17 06:49:00,38.7,26.8,30.25,North,0,0.0,0.0,62,0.00,,,0.00,meteobridge,2014-04-17 10:49:00,
2014-04-17 06:54:00,38.8,27.0,30.25,North,0,0.0,0.0,62,0.00,,,0.00,meteobridge,2014-04-17 10:54:00,
2014-04-17 07:00:00,38.8,27.0,30.25,North,0,0.0,0.0,62,0.00,,,0.00,meteobridge,2014-04-17 11:00:00,
2014-04-17 07:05:00,38.8,27.0,30.25,North,0,0.0,0.0,62,0.00,,,0.00,meteobridge,2014-04-17 11:05:00,
2014-04-17 07:10:00,38.8,27.0,30.25,North,0,0.0,0.0,62,0.00,,,0.00,meteobridge,2014-04-17 11:10:00,
2014-04-17 07:15:00,38.7,26.8,30.26,North,0,0.0,0.0,62,0.00,,,0.00,meteobridge,2014-04-17 11:15:00,
2014-04-17 07:20:00,38.7,26.8,30.26,North,0,0.0,0.0,62,0.00,,,0.00,meteobridge,2014-04-17 11:20:00,
2014-04-17 07:26:00,38.8,27.0,30.26,North,0,0.0,0.0,62,0.00,,,0.00,meteobridge,2014-04-17 11:26:00,
2014-04-17 07:31:00,39.0,27.1,30.26,North,0,0.0,0.0,62,0.00,,,0.00,meteobridge,2014-04-17 11:31:00,
2014-04-17 07:36:00,39.2,27.3,30.26,North,0,0.0,0.0,62,0.00,,,0.00,meteobridge,2014-04-17 11:36:00,
2014-04-17 07:41:00,39.6,27.7,30.26,North,0,0.0,0.0,62,0.00,,,0.00,meteobridge,2014-04-17 11:41:00,
2014-04-17 07:46:00,39.9,27.5,30.27,North,0,0.0,0.0,61,0.00,,,0.00,meteobridge,2014-04-17 11:46:00,
2014-04-17 07:52:00,40.1,27.7,30.27,North,0,0.0,0.0,61,0.00,,,0.00,meteobridge,2014-04-17 11:52:00,
2014-04-17 07:57:00,40.3,27.9,30.27,North,0,0.0,0.0,61,0.00,,,0.00,meteobridge,2014-04-17 11:57:00,
2014-04-17 08:02:00,40.6,28.2,30.27,North,0,0.0,0.0,61,0.00,,,0.00,meteobridge,2014-04-17 12:02:00,
2014-04-17 08:08:00,41.2,28.8,30.27,North,0,0.0,0.0,61,0.00,,,0.00,meteobridge,2014-04-17 12:08:00,
2014-04-17 08:13:00,41.9,28.9,30.27,North,0,0.0,0.0,60,0.00,,,0.00,meteobridge,2014-04-17 12:13:00,
2014-04-17 08:18:00,42.4,29.5,30.27,North,0,0.0,0.0,60,0.00,,,0.00,meteobridge,2014-04-17 12:18:00,
2014-04-17 08:23:00,42.6,29.3,30.28,North,0,0.0,0.0,59,0.00,,,0.00,meteobridge,2014-04-17 12:23:00,
2014-04-17 08:28:00,43.0,30.0,30.27,North,0,0.0,0.0,60,0.00,,,0.00,meteobridge,2014-04-17 12:28:00,
2014-04-17 08:33:00,43.3,30.4,30.28,North,0,0.0,0.0,60,0.00,,,0.00,meteobridge,2014-04-17 12:33:00,
2014-04-17 08:39:00,43.9,30.9,30.28,North,0,0.0,0.0,60,0.00,,,0.00,meteobridge,2014-04-17 12:39:00,
2014-04-17 08:44:00,44.4,30.9,30.28,North,0,0.0,0.0,59,0.00,,,0.00,meteobridge,2014-04-17 12:44:00,
2014-04-17 08:49:00,45.1,31.6,30.28,North,0,0.0,0.0,59,0.00,,,0.00,meteobridge,2014-04-17 12:49:00,
2014-04-17 08:54:00,45.9,32.0,30.28,North,0,0.0,0.0,58,0.00,,,0.00,meteobridge,2014-04-17 12:54:00,
2014-04-17 09:00:00,46.6,32.2,30.28,North,0,0.0,0.0,57,0.00,,,0.00,meteobridge,2014-04-17 13:00:00,
2014-04-17 09:05:00,47.5,33.1,30.28,North,0,0.0,0.0,57,0.00,,,0.00,meteobridge,2014-04-17 13:05:00,
2014-04-17 09:10:00,48.0,33.1,30.28,North,0,0.0,0.0,56,0.00,,,0.00,meteobridge,2014-04-17 13:10:00,
2014-04-17 09:15:00,48.6,33.1,30.28,North,0,0.0,0.0,55,0.00,,,0.00,meteobridge,2014-04-17 13:15:00,
2014-04-17 09:20:00,49.3,33.8,30.28,North,0,0.0,0.0,55,0.00,,,0.00,meteobridge,2014-04-17 13:20:00,
2014-04-17 09:25:00,50.0,33.6,30.28,North,0,0.0,0.0,53,0.00,,,0.00,meteobridge,2014-04-17 13:25:00,
2014-04-17 09:30:00,50.5,34.0,30.28,North,0,0.0,0.0,53,0.00,,,0.00,meteobridge,2014-04-17 13:30:00,
2014-04-17 09:35:00,51.1,34.0,30.28,North,0,0.0,0.0,52,0.00,,,0.00,meteobridge,2014-04-17 13:35:00,
2014-04-17 09:40:00,51.4,34.0,30.28,North,0,0.0,0.0,51,0.00,,,0.00,meteobridge,2014-04-17 13:40:00,
2014-04-17 09:45:00,51.6,34.2,30.28,North,0,0.0,0.0,51,0.00,,,0.00,meteobridge,2014-04-17 13:45:00,
2014-04-17 09:50:00,52.0,34.3,30.28,North,0,0.0,0.0,51,0.00,,,0.00,meteobridge,2014-04-17 13:50:00,
2014-04-17 09:56:00,52.3,34.2,30.28,North,0,0.0,0.0,50,0.00,,,0.00,meteobridge,2014-04-17 13:56:00,
2014-04-17 10:01:00,52.5,34.9,30.28,North,0,0.0,0.0,51,0.00,,,0.00,meteobridge,2014-04-17 14:01:00,
2014-04-17 10:06:00,52.9,34.7,30.28,North,0,0.0,0.0,50,0.00,,,0.00,meteobridge,2014-04-17 14:06:00,
2014-04-17 10:11:00,52.9,34.7,30.28,North,0,0.0,0.0,50,0.00,,,0.00,meteobridge,2014-04-17 14:11:00,
2014-04-17 10:16:00,53.2,35.6,30.28,North,0,0.0,0.0,51,0.00,,,0.00,meteobridge,2014-04-17 14:16:00,
2014-04-17 10:21:00,53.4,35.2,30.29,North,0,0.0,0.0,50,0.00,,,0.00,meteobridge,2014-04-17 14:21:00,
2014-04-17 10:27:00,53.8,35.1,30.29,North,0,0.0,0.0,49,0.00,,,0.00,meteobridge,2014-04-17 14:27:00,
2014-04-17 10:32:00,54.1,36.0,30.29,North,0,0.0,0.0,50,0.00,,,0.00,meteobridge,2014-04-17 14:32:00,
2014-04-17 10:37:00,54.3,35.1,30.29,North,0,0.0,0.0,48,0.00,,,0.00,meteobridge,2014-04-17 14:37:00,
2014-04-17 10:42:00,54.7,36.0,30.29,North,0,0.0,0.0,49,0.00,,,0.00,meteobridge,2014-04-17 14:42:00,
2014-04-17 10:47:00,55.2,36.0,30.29,North,0,0.0,0.0,48,0.00,,,0.00,meteobridge,2014-04-17 14:47:00,
2014-04-17 10:52:00,55.2,36.0,30.29,North,0,0.0,0.0,48,0.00,,,0.00,meteobridge,2014-04-17 14:52:00,
2014-04-17 10:58:00,55.6,36.1,30.29,North,0,0.0,0.0,48,0.00,,,0.00,meteobridge,2014-04-17 14:58:00,
2014-04-17 11:03:00,55.8,35.8,30.29,North,0,0.0,0.0,47,0.00,,,0.00,meteobridge,2014-04-17 15:03:00,
2014-04-17 11:08:00,56.1,36.7,30.30,North,0,0.0,0.0,48,0.00,,,0.00,meteobridge,2014-04-17 15:08:00,
2014-04-17 11:13:00,56.7,36.7,30.30,North,0,0.0,0.0,47,0.00,,,0.00,meteobridge,2014-04-17 15:13:00,
2014-04-17 11:19:00,56.8,36.3,30.30,North,0,0.0,0.0,46,0.00,,,0.00,meteobridge,2014-04-17 15:19:00,
2014-04-17 11:24:00,57.0,36.0,30.30,North,0,0.0,0.0,45,0.00,,,0.00,meteobridge,2014-04-17 15:24:00,
2014-04-17 11:29:00,57.2,35.4,30.30,North,0,0.0,0.0,44,0.00,,,0.00,meteobridge,2014-04-17 15:29:00,
2014-04-17 11:34:00,57.0,36.5,30.30,North,0,0.0,0.0,46,0.00,,,0.00,meteobridge,2014-04-17 15:34:00,
2014-04-17 11:39:00,57.4,36.1,30.30,North,0,0.0,0.0,45,0.00,,,0.00,meteobridge,2014-04-17 15:39:00,
2014-04-17 11:44:00,57.6,36.3,30.30,North,0,0.0,0.0,45,0.00,,,0.00,meteobridge,2014-04-17 15:44:00,
2014-04-17 11:50:00,58.1,36.3,30.30,North,0,0.0,0.0,44,0.00,,,0.00,meteobridge,2014-04-17 15:50:00,
2014-04-17 11:55:00,58.1,36.9,30.30,North,0,0.0,0.0,45,0.00,,,0.00,meteobridge,2014-04-17 15:55:00,
2014-04-17 12:00:00,58.6,36.9,30.30,North,0,0.0,0.0,44,0.00,,,0.00,meteobridge,2014-04-17 16:00:00,
2014-04-17 12:05:00,58.8,37.0,30.30,North,0,0.0,0.0,44,0.00,,,0.00,meteobridge,2014-04-17 16:05:00,
2014-04-17 12:10:00,59.0,37.0,30.30,North,0,0.0,0.0,44,0.00,,,0.00,meteobridge,2014-04-17 16:10:00,
2014-04-17 12:16:00,59.4,36.3,30.29,North,0,0.0,0.0,42,0.00,,,0.00,meteobridge,2014-04-17 16:16:00,
2014-04-17 12:21:00,59.5,37.0,30.29,North,0,0.0,0.0,43,0.00,,,0.00,meteobridge,2014-04-17 16:21:00,
2014-04-17 12:26:00,59.7,36.5,30.29,North,0,0.0,0.0,42,0.00,,,0.00,meteobridge,2014-04-17 16:26:00,
2014-04-17 12:31:00,59.7,36.0,30.29,North,0,0.0,0.0,41,0.00,,,0.00,meteobridge,2014-04-17 16:31:00,
2014-04-17 12:37:00,60.4,37.2,30.28,North,0,0.0,0.0,42,0.00,,,0.00,meteobridge,2014-04-17 16:37:00,
2014-04-17 12:42:00,60.3,37.0,30.29,North,0,0.0,0.0,42,0.00,,,0.00,meteobridge,2014-04-17 16:42:00,
2014-04-17 12:47:00,60.6,36.9,30.29,North,0,0.0,0.0,41,0.00,,,0.00,meteobridge,2014-04-17 16:47:00,
2014-04-17 12:52:00,61.2,36.7,30.29,North,0,0.0,0.0,40,0.00,,,0.00,meteobridge,2014-04-17 16:52:00,
2014-04-17 12:57:00,61.0,36.5,30.28,North,0,0.0,0.0,40,0.00,,,0.00,meteobridge,2014-04-17 16:57:00,
2014-04-17 13:02:00,61.2,36.7,30.28,North,0,0.0,0.0,40,0.00,,,0.00,meteobridge,2014-04-17 17:02:00,
2014-04-17 13:08:00,61.2,36.7,30.28,North,0,0.0,0.0,40,0.00,,,0.00,meteobridge,2014-04-17 17:08:00,
2014-04-17 13:13:00,61.3,36.9,30.27,North,0,0.0,0.0,40,0.00,,,0.00,meteobridge,2014-04-17 17:13:00,
2014-04-17 13:18:00,61.9,37.9,30.28,North,0,0.0,0.0,41,0.00,,,0.00,meteobridge,2014-04-17 17:18:00,
2014-04-17 13:23:00,61.9,36.7,30.27,North,0,0.0,0.0,39,0.00,,,0.00,meteobridge,2014-04-17 17:23:00,
2014-04-17 13:28:00,61.7,36.5,30.27,North,0,0.0,0.0,39,0.00,,,0.00,meteobridge,2014-04-17 17:28:00,
2014-04-17 13:33:00,61.7,37.2,30.27,North,0,0.0,0.0,40,0.00,,,0.00,meteobridge,2014-04-17 17:33:00,
2014-04-17 13:38:00,62.4,37.8,30.27,North,0,0.0,0.0,40,0.00,,,0.00,meteobridge,2014-04-17 17:38:00,
2014-04-17 13:43:00,63.0,37.0,30.27,North,0,0.0,0.0,38,0.00,,,0.00,meteobridge,2014-04-17 17:43:00,
2014-04-17 13:48:00,62.8,38.1,30.26,North,0,0.0,0.0,40,0.00,,,0.00,meteobridge,2014-04-17 17:48:00,
2014-04-17 13:53:00,63.5,38.7,30.26,North,0,0.0,0.0,40,0.00,,,0.00,meteobridge,2014-04-17 17:53:00,
2014-04-17 13:58:00,63.9,38.5,30.26,North,0,0.0,0.0,39,0.00,,,0.00,meteobridge,2014-04-17 17:58:00,
2014-04-17 14:04:00,63.7,36.9,30.26,North,0,0.0,0.0,37,0.00,,,0.00,meteobridge,2014-04-17 18:04:00,
2014-04-17 14:09:00,64.6,37.8,30.25,North,0,0.0,0.0,37,0.00,,,0.00,meteobridge,2014-04-17 18:09:00,
2014-04-17 14:14:00,64.8,34.2,30.25,North,0,0.0,0.0,32,0.00,,,0.00,meteobridge,2014-04-17 18:14:00,
2014-04-17 14:19:00,64.6,33.3,30.25,North,0,0.0,0.0,31,0.00,,,0.00,meteobridge,2014-04-17 18:19:00,
2014-04-17 14:24:00,64.4,34.0,30.26,North,0,0.0,0.0,32,0.00,,,0.00,meteobridge,2014-04-17 18:24:00,
2014-04-17 14:29:00,64.8,33.4,30.25,North,0,0.0,0.0,31,0.00,,,0.00,meteobridge,2014-04-17 18:29:00,
2014-04-17 14:35:00,65.1,34.5,30.26,North,0,0.0,0.0,32,0.00,,,0.00,meteobridge,2014-04-17 18:35:00,
2014-04-17 14:40:00,64.9,34.3,30.26,North,0,0.0,0.0,32,0.00,,,0.00,meteobridge,2014-04-17 18:40:00,
2014-04-17 14:45:00,65.1,33.8,30.25,North,0,0.0,0.0,31,0.00,,,0.00,meteobridge,2014-04-17 18:45:00,
2014-04-17 14:50:00,64.9,33.6,30.25,North,0,0.0,0.0,31,0.00,,,0.00,meteobridge,2014-04-17 18:50:00,
2014-04-17 14:55:00,65.3,33.8,30.25,North,0,0.0,0.0,31,0.00,,,0.00,meteobridge,2014-04-17 18:55:00,
2014-04-17 15:00:00,65.7,33.4,30.25,North,0,0.0,0.0,30,0.00,,,0.00,meteobridge,2014-04-17 19:00:00,
2014-04-17 15:05:00,65.8,35.2,30.25,North,0,0.0,0.0,32,0.00,,,0.00,meteobridge,2014-04-17 19:05:00,
2014-04-17 15:10:00,65.8,34.3,30.24,North,0,0.0,0.0,31,0.00,,,0.00,meteobridge,2014-04-17 19:10:00,
2014-04-17 15:15:00,65.8,35.2,30.25,North,0,0.0,0.0,32,0.00,,,0.00,meteobridge,2014-04-17 19:15:00,
2014-04-17 15:21:00,65.5,34.9,30.25,North,0,0.0,0.0,32,0.00,,,0.00,meteobridge,2014-04-17 19:21:00,
2014-04-17 15:26:00,65.7,35.1,30.24,North,0,0.0,0.0,32,0.00,,,0.00,meteobridge,2014-04-17 19:26:00,
2014-04-17 15:31:00,65.8,35.2,30.24,North,0,0.0,0.0,32,0.00,,,0.00,meteobridge,2014-04-17 19:31:00,
2014-04-17 15:36:00,65.7,35.8,30.24,North,0,0.0,0.0,33,0.00,,,0.00,meteobridge,2014-04-17 19:36:00,
2014-04-17 15:42:00,66.0,34.5,30.24,North,0,0.0,0.0,31,0.00,,,0.00,meteobridge,2014-04-17 19:42:00,
2014-04-17 15:47:00,66.6,35.8,30.24,North,0,0.0,0.0,32,0.00,,,0.00,meteobridge,2014-04-17 19:47:00,
2014-04-17 15:52:00,66.7,38.3,30.23,North,0,0.0,0.0,35,0.00,,,0.00,meteobridge,2014-04-17 19:52:00,
2014-04-17 15:57:00,66.7,36.0,30.23,North,0,0.0,0.0,32,0.00,,,0.00,meteobridge,2014-04-17 19:57:00,
2014-04-17 16:02:00,66.4,34.9,30.23,North,0,0.0,0.0,31,0.00,,,0.00,meteobridge,2014-04-17 20:02:00,
2014-04-17 16:08:00,66.2,35.4,30.23,North,0,0.0,0.0,32,0.00,,,0.00,meteobridge,2014-04-17 20:08:00,
2014-04-17 16:13:00,66.4,36.3,30.22,North,0,0.0,0.0,33,0.00,,,0.00,meteobridge,2014-04-17 20:13:00,
2014-04-17 16:18:00,66.7,35.1,30.22,North,0,0.0,0.0,31,0.00,,,0.00,meteobridge,2014-04-17 20:18:00,
2014-04-17 16:23:00,66.6,36.5,30.22,North,0,0.0,0.0,33,0.00,,,0.00,meteobridge,2014-04-17 20:23:00,
2014-04-17 16:28:00,66.6,35.8,30.22,North,0,0.0,0.0,32,0.00,,,0.00,meteobridge,2014-04-17 20:28:00,
2014-04-17 16:33:00,66.0,34.5,30.22,North,0,0.0,0.0,31,0.00,,,0.00,meteobridge,2014-04-17 20:33:00,
2014-04-17 16:39:00,66.0,36.1,30.22,North,0,0.0,0.0,33,0.00,,,0.00,meteobridge,2014-04-17 20:39:00,
2014-04-17 16:44:00,65.8,36.7,30.22,North,0,0.0,0.0,34,0.00,,,0.00,meteobridge,2014-04-17 20:44:00,
2014-04-17 16:49:00,65.7,36.5,30.22,North,0,0.0,0.0,34,0.00,,,0.00,meteobridge,2014-04-17 20:49:00,
2014-04-17 16:54:00,65.8,36.7,30.22,North,0,0.0,0.0,34,0.00,,,0.00,meteobridge,2014-04-17 20:54:00,
2014-04-17 16:59:00,65.7,36.5,30.22,North,0,0.0,0.0,34,0.00,,,0.00,meteobridge,2014-04-17 20:59:00,
2014-04-17 17:05:00,65.8,37.4,30.22,North,0,0.0,0.0,35,0.00,,,0.00,meteobridge,2014-04-17 21:05:00,
2014-04-17 17:10:00,66.0,37.6,30.22,North,0,0.0,0.0,35,0.00,,,0.00,meteobridge,2014-04-17 21:10:00,
2014-04-17 17:15:00,65.8,36.7,30.22,North,0,0.0,0.0,34,0.00,,,0.00,meteobridge,2014-04-17 21:15:00,
2014-04-17 17:20:00,66.0,36.9,30.22,North,0,0.0,0.0,34,0.00,,,0.00,meteobridge,2014-04-17 21:20:00,
2014-04-17 17:26:00,65.8,36.7,30.22,North,0,0.0,0.0,34,0.00,,,0.00,meteobridge,2014-04-17 21:26:00,
2014-04-17 17:31:00,66.0,36.1,30.22,North,0,0.0,0.0,33,0.00,,,0.00,meteobridge,2014-04-17 21:31:00,
2014-04-17 17:36:00,66.4,36.3,30.22,North,0,0.0,0.0,33,0.00,,,0.00,meteobridge,2014-04-17 21:36:00,
2014-04-17 17:41:00,66.0,36.1,30.22,North,0,0.0,0.0,33,0.00,,,0.00,meteobridge,2014-04-17 21:41:00,
2014-04-17 17:46:00,66.0,36.1,30.22,North,0,0.0,0.0,33,0.00,,,0.00,meteobridge,2014-04-17 21:46:00,
2014-04-17 17:52:00,66.0,36.1,30.22,North,0,0.0,0.0,33,0.00,,,0.00,meteobridge,2014-04-17 21:52:00,
2014-04-17 17:57:00,66.4,37.2,30.22,North,0,0.0,0.0,34,0.00,,,0.00,meteobridge,2014-04-17 21:57:00,
2014-04-17 18:02:00,65.8,36.7,30.21,North,0,0.0,0.0,34,0.00,,,0.00,meteobridge,2014-04-17 22:02:00,
2014-04-17 18:07:00,65.8,36.7,30.21,North,0,0.0,0.0,34,0.00,,,0.00,meteobridge,2014-04-17 22:07:00,
2014-04-17 18:12:00,66.0,36.9,30.22,North,0,0.0,0.0,34,0.00,,,0.00,meteobridge,2014-04-17 22:12:00,
2014-04-17 18:17:00,65.8,36.0,30.21,North,0,0.0,0.0,33,0.00,,,0.00,meteobridge,2014-04-17 22:17:00,
2014-04-17 18:23:00,65.8,36.7,30.21,North,0,0.0,0.0,34,0.00,,,0.00,meteobridge,2014-04-17 22:23:00,
2014-04-17 18:28:00,65.7,36.5,30.22,North,0,0.0,0.0,34,0.00,,,0.00,meteobridge,2014-04-17 22:28:00,
2014-04-17 18:33:00,65.5,36.3,30.21,North,0,0.0,0.0,34,0.00,,,0.00,meteobridge,2014-04-17 22:33:00,
2014-04-17 18:38:00,65.5,36.3,30.22,North,0,0.0,0.0,34,0.00,,,0.00,meteobridge,2014-04-17 22:38:00,
2014-04-17 18:44:00,65.3,36.1,30.21,North,0,0.0,0.0,34,0.00,,,0.00,meteobridge,2014-04-17 22:44:00,
2014-04-17 18:49:00,64.9,36.0,30.22,North,0,0.0,0.0,34,0.00,,,0.00,meteobridge,2014-04-17 22:49:00,
2014-04-17 18:54:00,64.8,35.8,30.22,North,0,0.0,0.0,34,0.00,,,0.00,meteobridge,2014-04-17 22:54:00,
2014-04-17 18:59:00,64.6,36.3,30.22,North,0,0.0,0.0,35,0.00,,,0.00,meteobridge,2014-04-17 22:59:00,
2014-04-17 19:04:00,64.6,37.0,30.22,North,0,0.0,0.0,36,0.00,,,0.00,meteobridge,2014-04-17 23:04:00,
2014-04-17 19:09:00,64.6,37.0,30.22,North,0,0.0,0.0,36,0.00,,,0.00,meteobridge,2014-04-17 23:09:00,
2014-04-17 19:14:00,64.4,36.9,30.22,North,0,0.0,0.0,36,0.00,,,0.00,meteobridge,2014-04-17 23:14:00,
2014-04-17 19:20:00,64.4,37.6,30.22,North,0,0.0,0.0,37,0.00,,,0.00,meteobridge,2014-04-17 23:20:00,
2014-04-17 19:25:00,64.2,36.0,30.22,North,0,0.0,0.0,35,0.00,,,0.00,meteobridge,2014-04-17 23:25:00,
2014-04-17 19:30:00,63.9,36.3,30.22,North,0,0.0,0.0,36,0.00,,,0.00,meteobridge,2014-04-17 23:30:00,
2014-04-17 19:35:00,63.7,36.9,30.22,North,0,0.0,0.0,37,0.00,,,0.00,meteobridge,2014-04-17 23:35:00,
2014-04-17 19:41:00,63.1,37.0,30.22,North,0,0.0,0.0,38,0.00,,,0.00,meteobridge,2014-04-17 23:41:00,
2014-04-17 19:46:00,63.0,37.6,30.22,North,0,0.0,0.0,39,0.00,,,0.00,meteobridge,2014-04-17 23:46:00,
2014-04-17 19:51:00,62.4,37.8,30.23,North,0,0.0,0.0,40,0.00,,,0.00,meteobridge,2014-04-17 23:51:00,
2014-04-17 19:56:00,62.2,38.3,30.23,North,0,0.0,0.0,41,0.00,,,0.00,meteobridge,2014-04-17 23:56:00,
2014-04-17 20:02:00,61.9,39.2,30.23,North,0,0.0,0.0,43,0.00,,,0.00,meteobridge,2014-04-18 00:02:00,
2014-04-17 20:07:00,61.5,38.8,30.23,North,0,0.0,0.0,43,0.00,,,0.00,meteobridge,2014-04-18 00:07:00,
2014-04-17 20:12:00,61.2,39.0,30.24,North,0,0.0,0.0,44,0.00,,,0.00,meteobridge,2014-04-18 00:12:00,
2014-04-17 20:17:00,61.0,38.8,30.24,North,0,0.0,0.0,44,0.00,,,0.00,meteobridge,2014-04-18 00:17:00,
2014-04-17 20:22:00,60.8,39.4,30.24,North,0,0.0,0.0,45,0.00,,,0.00,meteobridge,2014-04-18 00:22:00,
2014-04-17 20:27:00,60.6,39.2,30.24,North,0,0.0,0.0,45,0.00,,,0.00,meteobridge,2014-04-18 00:27:00,
2014-04-17 20:33:00,60.4,39.0,30.24,North,0,0.0,0.0,45,0.00,,,0.00,meteobridge,2014-04-18 00:33:00,
2014-04-17 20:38:00,60.3,38.8,30.24,North,0,0.0,0.0,45,0.00,,,0.00,meteobridge,2014-04-18 00:38:00,
2014-04-17 20:43:00,60.3,39.4,30.24,North,0,0.0,0.0,46,0.00,,,0.00,meteobridge,2014-04-18 00:43:00,
2014-04-17 20:48:00,60.1,39.2,30.24,North,0,0.0,0.0,46,0.00,,,0.00,meteobridge,2014-04-18 00:48:00,
2014-04-17 20:53:00,59.9,39.0,30.24,North,0,0.0,0.0,46,0.00,,,0.00,meteobridge,2014-04-18 00:53:00,
2014-04-17 20:58:00,59.9,39.0,30.24,North,0,0.0,0.0,46,0.00,,,0.00,meteobridge,2014-04-18 00:58:00,
2014-04-17 21:03:00,59.7,38.8,30.24,North,0,0.0,0.0,46,0.00,,,0.00,meteobridge,2014-04-18 01:03:00,
2014-04-17 21:08:00,59.7,39.4,30.24,North,0,0.0,0.0,47,0.00,,,0.00,meteobridge,2014-04-18 01:08:00,
2014-04-17 21:11:00,59.5,39.4,30.24,North,0,0.0,0.0,47,0.00,,,0.00,meteobridge,2014-04-18 01:11:00,
2014-04-17 21:16:00,59.4,39.2,30.24,North,0,0.0,0.0,47,0.00,,,0.00,meteobridge,2014-04-18 01:16:00,
2014-04-17 21:21:00,59.2,39.0,30.24,North,0,0.0,0.0,47,0.00,,,0.00,meteobridge,2014-04-18 01:21:00,
2014-04-17 21:27:00,59.0,39.4,30.24,North,0,0.0,0.0,48,0.00,,,0.00,meteobridge,2014-04-18 01:27:00,
2014-04-17 21:32:00,58.8,39.2,30.24,North,0,0.0,0.0,48,0.00,,,0.00,meteobridge,2014-04-18 01:32:00,
2014-04-17 21:37:00,58.6,39.0,30.23,North,0,0.0,0.0,48,0.00,,,0.00,meteobridge,2014-04-18 01:37:00,
2014-04-17 21:43:00,58.6,39.6,30.23,North,0,0.0,0.0,49,0.00,,,0.00,meteobridge,2014-04-18 01:43:00,
2014-04-17 21:48:00,58.5,39.4,30.24,North,0,0.0,0.0,49,0.00,,,0.00,meteobridge,2014-04-18 01:48:00,
2014-04-17 21:53:00,58.3,39.2,30.24,North,0,0.0,0.0,49,0.00,,,0.00,meteobridge,2014-04-18 01:53:00,
2014-04-17 21:58:00,58.1,39.6,30.24,North,0,0.0,0.0,50,0.00,,,0.00,meteobridge,2014-04-18 01:58:00,
2014-04-17 22:03:00,57.7,39.2,30.24,North,0,0.0,0.0,50,0.00,,,0.00,meteobridge,2014-04-18 02:03:00,
2014-04-17 22:08:00,57.6,39.6,30.24,North,0,0.0,0.0,51,0.00,,,0.00,meteobridge,2014-04-18 02:08:00,
2014-04-17 22:13:00,57.4,39.4,30.24,North,0,0.0,0.0,51,0.00,,,0.00,meteobridge,2014-04-18 02:13:00,
2014-04-17 22:18:00,57.2,39.2,30.24,North,0,0.0,0.0,51,0.00,,,0.00,meteobridge,2014-04-18 02:18:00,
2014-04-17 22:23:00,56.5,39.6,30.24,North,0,0.0,0.0,53,0.00,,,0.00,meteobridge,2014-04-18 02:23:00,